Time,TemperatureF,DewpointF,PressureIn,WindDirection,WindDirectionDegrees,WindSpeedMPH,WindSpeedGustMPH,Humidity,HourlyPrecipIn,Conditions,Clouds,dailyrainin,SoftwareType,DateUTC
2013-02-17 00:02:00,49.3,37.6,29.88,West,270,12.0,16.0,64,0.00,,,0.00,meteohub,2013-02-17 08:02:00,
2013-02-17 00:07:00,49.3,37.6,29.88,West,270,12.0,15.0,64,0.00,,,0.00,meteohub,2013-02-17 08:07:00,
2013-02-17 00:12:00,49.5,38.1,29.88,West,270,11.0,13.0,65,0.00,,,0.00,meteohub,2013-02-17 08:12:00,
2013-02-17 00:17:00,49.5,38.1,29.88,NW,315,9.0,13.0,65,0.00,,,0.00,meteohub,2013-02-17 08:17:00,
2013-02-17 00:22:00,49.5,38.1,29.88,West,270,11.0,13.0,65,0.00,,,0.00,meteohub,2013-02-17 08:22:00,
2013-02-17 00:27:00,49.3,37.9,29.88,West,270,10.0,13.0,65,0.00,,,0.00,meteohub,2013-02-17 08:27:00,
2013-02-17 00:32:00,49.5,38.7,29.88,West,270,14.0,14.0,66,0.00,,,0.00,meteohub,2013-02-17 08:32:00,
2013-02-17 00:37:00,49.3,38.5,29.88,West,270,15.0,15.0,66,0.00,,,0.00,meteohub,2013-02-17 08:37:00,
2013-02-17 00:42:00,49.3,38.5,29.88,West,270,11.0,15.0,66,0.00,,,0.00,meteohub,2013-02-17 08:42:00,
2013-02-17 00:47:00,49.3,38.5,29.88,West,270,12.0,16.0,66,0.00,,,0.00,meteohub,2013-02-17 08:47:00,
2013-02-17 00:52:00,49.3,38.5,29.88,NW,315,15.0,16.0,66,0.00,,,0.00,meteohub,2013-02-17 08:52:00,
2013-02-17 00:57:00,49.3,38.8,29.88,West,270,10.0,17.0,67,0.00,,,0.00,meteohub,2013-02-17 08:57:00,
2013-02-17 01:02:00,49.3,38.8,29.88,West,270,13.0,17.0,67,0.00,,,0.00,meteohub,2013-02-17 09:02:00,
2013-02-17 01:07:00,49.3,38.8,29.88,WSW,248,15.0,17.0,67,0.00,,,0.00,meteohub,2013-02-17 09:07:00,
2013-02-17 01:12:00,49.3,38.8,29.88,West,270,11.0,15.0,67,0.00,,,0.00,meteohub,2013-02-17 09:12:00,
2013-02-17 01:17:00,49.3,38.8,29.88,West,270,12.0,15.0,67,0.00,,,0.00,meteohub,2013-02-17 09:17:00,
2013-02-17 01:22:00,49.3,38.8,29.88,NW,315,12.0,15.0,67,0.00,,,0.00,meteohub,2013-02-17 09:22:00,
2013-02-17 01:27:00,48.9,38.5,29.88,NW,315,8.0,15.0,67,0.00,,,0.00,meteohub,2013-02-17 09:27:00,
2013-02-17 01:32:00,48.9,38.1,29.88,SW,225,10.0,17.0,66,0.00,,,0.00,meteohub,2013-02-17 09:32:00,
2013-02-17 01:37:00,48.9,38.1,29.87,West,270,8.0,17.0,66,0.00,,,0.00,meteohub,2013-02-17 09:37:00,
2013-02-17 01:42:00,49.1,38.3,29.88,West,270,11.0,17.0,66,0.00,,,0.00,meteohub,2013-02-17 09:42:00,
2013-02-17 01:47:00,49.1,37.8,29.88,West,270,12.0,15.0,65,0.00,,,0.00,meteohub,2013-02-17 09:47:00,
2013-02-17 01:52:00,49.1,37.8,29.87,SW,225,11.0,15.0,65,0.00,,,0.00,meteohub,2013-02-17 09:52:00,
2013-02-17 01:57:00,49.1,37.4,29.87,West,270,13.0,15.0,64,0.00,,,0.00,meteohub,2013-02-17 09:57:00,
2013-02-17 02:02:00,49.1,37.4,29.87,West,270,11.0,15.0,64,0.00,,,0.00,meteohub,2013-02-17 10:02:00,
2013-02-17 02:07:00,49.1,37.4,29.87,West,270,11.0,16.0,64,0.00,,,0.00,meteohub,2013-02-17 10:07:00,
2013-02-17 02:12:00,49.1,36.3,29.87,NW,315,9.0,16.0,61,0.00,,,0.00,meteohub,2013-02-17 10:12:00,
2013-02-17 02:17:00,49.1,35.8,29.86,West,270,11.0,14.0,60,0.00,,,0.00,meteohub,2013-02-17 10:17:00,
2013-02-17 02:22:00,49.1,35.4,29.87,West,270,8.0,14.0,59,0.00,,,0.00,meteohub,2013-02-17 10:22:00,
2013-02-17 02:27:00,49.1,34.9,29.87,SW,225,11.0,14.0,58,0.00,,,0.00,meteohub,2013-02-17 10:27:00,
2013-02-17 02:32:00,49.1,34.5,29.86,North,0,9.0,12.0,57,0.00,,,0.00,meteohub,2013-02-17 10:32:00,
2013-02-17 02:37:00,48.9,34.0,29.86,NW,315,12.0,15.0,56,0.00,,,0.00,meteohub,2013-02-17 10:37:00,
2013-02-17 02:42:00,49.1,34.2,29.86,SW,225,11.0,15.0,56,0.00,,,0.00,meteohub,2013-02-17 10:42:00,
2013-02-17 02:47:00,48.9,34.0,29.86,NW,315,10.0,15.0,56,0.00,,,0.00,meteohub,2013-02-17 10:47:00,
2013-02-17 02:52:00,48.6,33.6,29.86,SW,225,11.0,15.0,56,0.00,,,0.00,meteohub,2013-02-17 10:52:00,
2013-02-17 02:57:00,48.4,33.4,29.86,West,270,10.0,15.0,56,0.00,,,0.00,meteohub,2013-02-17 10:57:00,
2013-02-17 03:02:00,48.2,33.6,29.86,SW,225,9.0,16.0,57,0.00,,,0.00,meteohub,2013-02-17 11:02:00,
2013-02-17 03:07:00,48.2,34.2,29.86,WNW,293,6.0,16.0,58,0.00,,,0.00,meteohub,2013-02-17 11:07:00,
2013-02-17 03:12:00,48.2,34.5,29.85,SW,225,8.0,16.0,59,0.00,,,0.00,meteohub,2013-02-17 11:12:00,
2013-02-17 03:17:00,48.2,34.5,29.85,West,270,10.0,14.0,59,0.00,,,0.00,meteohub,2013-02-17 11:17:00,
2013-02-17 03:22:00,48.2,34.9,29.85,NW,315,8.0,12.0,60,0.00,,,0.00,meteohub,2013-02-17 11:22:00,
2013-02-17 03:27:00,48.4,35.6,29.85,NW,315,8.0,11.0,61,0.00,,,0.00,meteohub,2013-02-17 11:27:00,
2013-02-17 03:32:00,48.6,35.8,29.86,West,270,10.0,12.0,61,0.00,,,0.00,meteohub,2013-02-17 11:32:00,
2013-02-17 03:37:00,48.7,36.0,29.85,NW,315,10.0,12.0,61,0.00,,,0.00,meteohub,2013-02-17 11:37:00,
2013-02-17 03:42:00,48.7,36.0,29.85,West,270,10.0,12.0,61,0.00,,,0.00,meteohub,2013-02-17 11:42:00,
2013-02-17 03:47:00,48.7,36.0,29.85,West,270,6.0,12.0,61,0.00,,,0.00,meteohub,2013-02-17 11:47:00,
2013-02-17 03:52:00,48.6,35.8,29.85,West,270,8.0,12.0,61,0.00,,,0.00,meteohub,2013-02-17 11:52:00,
2013-02-17 03:57:00,48.6,35.2,29.85,SW,225,8.0,12.0,60,0.00,,,0.00,meteohub,2013-02-17 11:57:00,
2013-02-17 04:02:00,48.6,35.2,29.85,NW,315,8.0,11.0,60,0.00,,,0.00,meteohub,2013-02-17 12:02:00,
2013-02-17 04:08:00,48.6,34.9,29.85,NW,315,8.0,11.0,59,0.00,,,0.00,meteohub,2013-02-17 12:08:00,
2013-02-17 04:13:00,48.7,34.7,29.85,West,270,6.0,9.0,58,0.00,,,0.00,meteohub,2013-02-17 12:13:00,
2013-02-17 04:18:00,48.6,34.0,29.85,SW,225,11.0,11.0,57,0.00,,,0.00,meteohub,2013-02-17 12:18:00,
2013-02-17 04:23:00,48.6,33.6,29.85,NW,315,6.0,11.0,56,0.00,,,0.00,meteohub,2013-02-17 12:23:00,
2013-02-17 04:28:00,48.7,33.8,29.85,West,270,7.0,11.0,56,0.00,,,0.00,meteohub,2013-02-17 12:28:00,
2013-02-17 04:33:00,48.7,33.8,29.84,West,270,8.0,11.0,56,0.00,,,0.00,meteohub,2013-02-17 12:33:00,
2013-02-17 04:38:00,48.7,33.3,29.85,NW,315,8.0,60.0,55,0.00,,,0.00,meteohub,2013-02-17 12:38:00,
2013-02-17 04:43:00,48.7,33.3,29.84,South,180,5.0,60.0,55,0.00,,,0.00,meteohub,2013-02-17 12:43:00,
2013-02-17 04:48:00,48.7,32.9,29.84,West,270,8.0,60.0,54,0.00,,,0.00,meteohub,2013-02-17 12:48:00,
2013-02-17 04:53:00,48.6,32.7,29.84,West,270,6.0,13.0,54,0.00,,,0.00,meteohub,2013-02-17 12:53:00,
2013-02-17 04:58:00,48.6,32.2,29.84,West,270,6.0,13.0,53,0.00,,,0.00,meteohub,2013-02-17 12:58:00,
2013-02-17 05:04:00,48.4,32.0,29.84,West,270,12.0,12.0,53,0.00,,,0.00,meteohub,2013-02-17 13:04:00,
2013-02-17 05:09:00,48.6,31.8,29.84,West,270,4.0,12.0,52,0.00,,,0.00,meteohub,2013-02-17 13:09:00,
2013-02-17 05:14:00,48.6,31.8,29.84,NW,315,9.0,12.0,52,0.00,,,0.00,meteohub,2013-02-17 13:14:00,
2013-02-17 05:19:00,48.4,31.6,29.84,WSW,248,8.0,12.0,52,0.00,,,0.00,meteohub,2013-02-17 13:19:00,
2013-02-17 05:24:00,48.4,31.6,29.84,SW,225,4.0,12.0,52,0.00,,,0.00,meteohub,2013-02-17 13:24:00,
2013-02-17 05:29:00,48.2,31.5,29.85,West,270,8.0,11.0,52,0.00,,,0.00,meteohub,2013-02-17 13:29:00,
2013-02-17 05:34:00,48.0,31.6,29.84,West,270,8.0,10.0,53,0.00,,,0.00,meteohub,2013-02-17 13:34:00,
2013-02-17 05:39:00,48.0,32.2,29.85,West,270,11.0,11.0,54,0.00,,,0.00,meteohub,2013-02-17 13:39:00,
2013-02-17 05:44:00,47.8,32.5,29.85,West,270,11.0,11.0,55,0.00,,,0.00,meteohub,2013-02-17 13:44:00,
2013-02-17 05:49:00,47.7,32.4,29.85,NW,315,11.0,13.0,55,0.00,,,0.00,meteohub,2013-02-17 13:49:00,
2013-02-17 05:54:00,47.5,32.5,29.85,NW,315,8.0,13.0,56,0.00,,,0.00,meteohub,2013-02-17 13:54:00,
2013-02-17 06:00:00,47.5,32.5,29.85,SW,225,8.0,13.0,56,0.00,,,0.00,meteohub,2013-02-17 14:00:00,
2013-02-17 06:05:00,47.5,32.5,29.85,SW,225,8.0,11.0,56,0.00,,,0.00,meteohub,2013-02-17 14:05:00,
2013-02-17 06:10:00,47.5,33.1,29.85,NW,315,10.0,11.0,57,0.00,,,0.00,meteohub,2013-02-17 14:10:00,
2013-02-17 06:15:00,47.7,33.3,29.86,NW,315,8.0,11.0,57,0.00,,,0.00,meteohub,2013-02-17 14:15:00,
2013-02-17 06:20:00,47.8,33.8,29.86,West,270,12.0,12.0,58,0.00,,,0.00,meteohub,2013-02-17 14:20:00,
2013-02-17 06:25:00,47.7,33.6,29.86,SW,225,7.0,13.0,58,0.00,,,0.00,meteohub,2013-02-17 14:25:00,
2013-02-17 06:30:00,47.7,33.6,29.86,NW,315,9.0,13.0,58,0.00,,,0.00,meteohub,2013-02-17 14:30:00,
2013-02-17 06:35:00,47.7,33.3,29.86,West,270,12.0,13.0,57,0.00,,,0.00,meteohub,2013-02-17 14:35:00,
2013-02-17 06:40:00,47.7,33.3,29.86,NW,315,8.0,17.0,57,0.00,,,0.00,meteohub,2013-02-17 14:40:00,
2013-02-17 06:45:00,47.7,33.3,29.86,West,270,9.0,17.0,57,0.00,,,0.00,meteohub,2013-02-17 14:45:00,
2013-02-17 06:50:00,47.8,32.9,29.86,NW,315,14.0,17.0,56,0.00,,,0.00,meteohub,2013-02-17 14:50:00,
2013-02-17 06:56:00,47.7,32.4,29.86,WSW,248,13.0,14.0,55,0.00,,,0.00,meteohub,2013-02-17 14:56:00,
2013-02-17 07:01:00,47.7,32.4,29.87,SW,225,11.0,14.0,55,0.00,,,0.00,meteohub,2013-02-17 15:01:00,
2013-02-17 07:06:00,47.7,31.8,29.87,SW,225,9.0,14.0,54,0.00,,,0.00,meteohub,2013-02-17 15:06:00,
2013-02-17 07:11:00,47.7,31.3,29.87,NW,315,12.0,13.0,53,0.00,,,0.00,meteohub,2013-02-17 15:11:00,
2013-02-17 07:16:00,47.5,30.7,29.87,NW,315,8.0,13.0,52,0.00,,,0.00,meteohub,2013-02-17 15:16:00,
2013-02-17 07:21:00,47.7,30.4,29.87,West,270,8.0,13.0,51,0.00,,,0.00,meteohub,2013-02-17 15:21:00,
2013-02-17 07:26:00,47.7,30.4,29.87,West,270,8.0,13.0,51,0.00,,,0.00,meteohub,2013-02-17 15:26:00,
2013-02-17 07:31:00,47.8,30.0,29.87,NW,315,11.0,13.0,50,0.00,,,0.00,meteohub,2013-02-17 15:31:00,
2013-02-17 07:36:00,48.0,29.8,29.87,West,270,10.0,13.0,49,0.00,,,0.00,meteohub,2013-02-17 15:36:00,
2013-02-17 07:42:00,48.2,28.9,29.88,NW,315,6.0,13.0,47,0.00,,,0.00,meteohub,2013-02-17 15:42:00,
2013-02-17 07:47:00,48.2,28.4,29.87,West,270,11.0,13.0,46,0.00,,,0.00,meteohub,2013-02-17 15:47:00,
2013-02-17 07:52:00,48.4,28.0,29.87,West,270,9.0,13.0,45,0.00,,,0.00,meteohub,2013-02-17 15:52:00,
2013-02-17 07:57:00,48.4,27.5,29.88,NW,315,8.0,11.0,44,0.00,,,0.00,meteohub,2013-02-17 15:57:00,
2013-02-17 08:02:00,48.4,27.5,29.88,West,270,8.0,11.0,44,0.00,,,0.00,meteohub,2013-02-17 16:02:00,
2013-02-17 08:07:00,48.4,27.5,29.88,West,270,8.0,11.0,44,0.00,,,0.00,meteohub,2013-02-17 16:07:00,
2013-02-17 08:12:00,48.9,25.7,29.88,West,270,11.0,11.0,40,0.00,,,0.00,meteohub,2013-02-17 16:12:00,
2013-02-17 08:17:00,49.1,25.2,29.87,West,270,8.0,11.0,39,0.00,,,0.00,meteohub,2013-02-17 16:17:00,
2013-02-17 08:22:00,49.5,25.0,29.87,West,270,8.0,11.0,38,0.00,,,0.00,meteohub,2013-02-17 16:22:00,
2013-02-17 08:27:00,49.5,24.3,29.87,West,270,7.0,11.0,37,0.00,,,0.00,meteohub,2013-02-17 16:27:00,
2013-02-17 08:32:00,49.6,23.7,29.87,NW,315,10.0,11.0,36,0.00,,,0.00,meteohub,2013-02-17 16:32:00,
2013-02-17 08:37:00,49.8,23.2,29.88,West,270,11.0,11.0,35,0.00,,,0.00,meteohub,2013-02-17 16:37:00,
2013-02-17 08:42:00,50.0,22.6,29.88,NW,315,10.0,11.0,34,0.00,,,0.00,meteohub,2013-02-17 16:42:00,
2013-02-17 08:47:00,50.2,22.1,29.88,NW,315,7.0,11.0,33,0.00,,,0.00,meteohub,2013-02-17 16:47:00,
2013-02-17 08:52:00,50.2,22.1,29.88,NW,315,11.0,13.0,33,0.00,,,0.00,meteohub,2013-02-17 16:52:00,
2013-02-17 08:57:00,50.0,22.1,29.88,West,270,8.0,13.0,33,0.00,,,0.00,meteohub,2013-02-17 16:57:00,
2013-02-17 09:02:00,50.0,22.1,29.88,West,270,9.0,13.0,33,0.00,,,0.00,meteohub,2013-02-17 17:02:00,
2013-02-17 09:07:00,49.8,22.6,29.88,West,270,6.0,12.0,34,0.00,,,0.00,meteohub,2013-02-17 17:07:00,
2013-02-17 09:12:00,49.8,21.9,29.88,NW,315,13.0,13.0,33,0.00,,,0.00,meteohub,2013-02-17 17:12:00,
2013-02-17 09:17:00,49.6,22.5,29.88,West,270,13.0,13.0,34,0.00,,,0.00,meteohub,2013-02-17 17:17:00,
2013-02-17 09:22:00,49.5,21.6,29.88,NW,315,9.0,13.0,33,0.00,,,0.00,meteohub,2013-02-17 17:22:00,
2013-02-17 09:27:00,49.5,22.3,29.88,NW,315,11.0,13.0,34,0.00,,,0.00,meteohub,2013-02-17 17:27:00,
2013-02-17 09:32:00,49.5,22.3,29.88,West,270,9.0,13.0,34,0.00,,,0.00,meteohub,2013-02-17 17:32:00,
2013-02-17 09:37:00,49.5,22.3,29.88,West,270,8.0,12.0,34,0.00,,,0.00,meteohub,2013-02-17 17:37:00,
2013-02-17 09:42:00,49.6,22.5,29.88,West,270,9.0,12.0,34,0.00,,,0.00,meteohub,2013-02-17 17:42:00,
2013-02-17 09:47:00,49.5,21.6,29.88,West,270,7.0,13.0,33,0.00,,,0.00,meteohub,2013-02-17 17:47:00,
2013-02-17 09:52:00,49.6,22.5,29.88,West,270,10.0,13.0,34,0.00,,,0.00,meteohub,2013-02-17 17:52:00,
2013-02-17 09:57:00,49.6,21.0,29.88,NW,315,12.0,13.0,32,0.00,,,0.00,meteohub,2013-02-17 17:57:00,
2013-02-17 10:02:00,49.6,21.0,29.88,NW,315,5.0,13.0,32,0.00,,,0.00,meteohub,2013-02-17 18:02:00,
2013-02-17 10:07:00,49.6,21.0,29.88,West,270,8.0,12.0,32,0.00,,,0.00,meteohub,2013-02-17 18:07:00,
2013-02-17 10:12:00,49.6,21.0,29.88,West,270,10.0,12.0,32,0.00,,,0.00,meteohub,2013-02-17 18:12:00,
2013-02-17 10:17:00,49.5,20.8,29.88,West,270,9.0,11.0,32,0.00,,,0.00,meteohub,2013-02-17 18:17:00,
2013-02-17 10:22:00,49.5,20.8,29.88,SW,225,9.0,11.0,32,0.00,,,0.00,meteohub,2013-02-17 18:22:00,
2013-02-17 10:27:00,49.3,20.7,29.88,NW,315,10.0,13.0,32,0.00,,,0.00,meteohub,2013-02-17 18:27:00,
2013-02-17 10:32:00,49.3,20.7,29.88,West,270,9.0,13.0,32,0.00,,,0.00,meteohub,2013-02-17 18:32:00,
2013-02-17 10:37:00,49.5,20.1,29.88,WNW,293,13.0,14.0,31,0.00,,,0.00,meteohub,2013-02-17 18:37:00,
2013-02-17 10:42:00,49.8,19.6,29.89,West,270,8.0,14.0,30,0.00,,,0.00,meteohub,2013-02-17 18:42:00,
2013-02-17 10:47:00,50.2,19.2,29.88,SW,225,11.0,14.0,29,0.00,,,0.00,meteohub,2013-02-17 18:47:00,
2013-02-17 10:52:00,50.2,19.2,29.88,NW,315,10.0,14.0,29,0.00,,,0.00,meteohub,2013-02-17 18:52:00,
2013-02-17 10:57:00,50.2,19.2,29.88,West,270,10.0,12.0,29,0.00,,,0.00,meteohub,2013-02-17 18:57:00,
2013-02-17 11:02:00,50.2,19.2,29.88,NW,315,16.0,16.0,29,0.00,,,0.00,meteohub,2013-02-17 19:02:00,
2013-02-17 11:07:00,50.5,19.4,29.88,West,270,11.0,16.0,29,0.00,,,0.00,meteohub,2013-02-17 19:07:00,
2013-02-17 11:12:00,50.9,18.9,29.88,NW,315,11.0,16.0,28,0.00,,,0.00,meteohub,2013-02-17 19:12:00,
2013-02-17 11:17:00,51.3,19.2,29.89,West,270,11.0,16.0,28,0.00,,,0.00,meteohub,2013-02-17 19:17:00,
2013-02-17 11:22:00,51.1,19.0,29.88,NW,315,8.0,11.0,28,0.00,,,0.00,meteohub,2013-02-17 19:22:00,
2013-02-17 11:27:00,51.1,19.0,29.88,NW,315,9.0,11.0,28,0.00,,,0.00,meteohub,2013-02-17 19:27:00,
2013-02-17 11:32:00,51.6,19.6,29.88,West,270,6.0,12.0,28,0.00,,,0.00,meteohub,2013-02-17 19:32:00,
2013-02-17 11:38:00,52.2,18.3,29.88,West,270,13.0,15.0,26,0.00,,,0.00,meteohub,2013-02-17 19:38:00,
2013-02-17 11:43:00,52.2,18.3,29.88,North,0,6.0,15.0,26,0.00,,,0.00,meteohub,2013-02-17 19:43:00,
2013-02-17 11:48:00,53.2,18.3,29.87,West,270,10.0,15.0,25,0.00,,,0.00,meteohub,2013-02-17 19:48:00,
2013-02-17 11:53:00,53.2,18.3,29.87,NW,315,11.0,15.0,25,0.00,,,0.00,meteohub,2013-02-17 19:53:00,
2013-02-17 11:58:00,52.9,18.0,29.87,West,270,11.0,11.0,25,0.00,,,0.00,meteohub,2013-02-17 19:58:00,
2013-02-17 12:03:00,53.1,18.1,29.87,North,0,6.0,11.0,25,0.00,,,0.00,meteohub,2013-02-17 20:03:00,
2013-02-17 12:08:00,53.6,17.6,29.86,NW,315,11.0,12.0,24,0.00,,,0.00,meteohub,2013-02-17 20:08:00,
2013-02-17 12:13:00,53.6,17.6,29.86,West,270,8.0,12.0,24,0.00,,,0.00,meteohub,2013-02-17 20:13:00,
2013-02-17 12:18:00,53.8,17.8,29.86,NW,315,10.0,12.0,24,0.00,,,0.00,meteohub,2013-02-17 20:18:00,
2013-02-17 12:24:00,53.6,17.6,29.86,NW,315,14.0,14.0,24,0.00,,,0.00,meteohub,2013-02-17 20:24:00,
2013-02-17 12:29:00,53.6,17.6,29.85,North,0,11.0,14.0,24,0.00,,,0.00,meteohub,2013-02-17 20:29:00,
2013-02-17 12:34:00,53.8,17.8,29.85,West,270,13.0,14.0,24,0.00,,,0.00,meteohub,2013-02-17 20:34:00,
2013-02-17 12:39:00,53.4,18.5,29.85,NW,315,11.0,14.0,25,0.00,,,0.00,meteohub,2013-02-17 20:39:00,
2013-02-17 12:44:00,53.8,18.9,29.85,West,270,11.0,15.0,25,0.00,,,0.00,meteohub,2013-02-17 20:44:00,
2013-02-17 12:49:00,53.6,17.6,29.84,West,270,13.0,15.0,24,0.00,,,0.00,meteohub,2013-02-17 20:49:00,
2013-02-17 12:54:00,53.6,17.6,29.84,NW,315,11.0,15.0,24,0.00,,,0.00,meteohub,2013-02-17 20:54:00,
2013-02-17 12:59:00,53.6,17.6,29.84,NW,315,9.0,13.0,24,0.00,,,0.00,meteohub,2013-02-17 20:59:00,
2013-02-17 13:04:00,53.6,18.7,29.83,NW,315,9.0,13.0,25,0.00,,,0.00,meteohub,2013-02-17 21:04:00,
2013-02-17 13:09:00,53.6,18.7,29.84,NW,315,11.0,15.0,25,0.00,,,0.00,meteohub,2013-02-17 21:09:00,
2013-02-17 13:14:00,53.6,18.7,29.84,West,270,12.0,15.0,25,0.00,,,0.00,meteohub,2013-02-17 21:14:00,
2013-02-17 13:20:00,53.4,19.4,29.83,West,270,13.0,15.0,26,0.00,,,0.00,meteohub,2013-02-17 21:20:00,
2013-02-17 13:25:00,53.2,18.3,29.83,West,270,12.0,16.0,25,0.00,,,0.00,meteohub,2013-02-17 21:25:00,
2013-02-17 13:30:00,53.2,18.3,29.83,West,270,14.0,16.0,25,0.00,,,0.00,meteohub,2013-02-17 21:30:00,
2013-02-17 13:35:00,52.9,18.9,29.83,WNW,293,9.0,16.0,26,0.00,,,0.00,meteohub,2013-02-17 21:35:00,
2013-02-17 13:40:00,53.1,18.1,29.83,West,270,11.0,14.0,25,0.00,,,0.00,meteohub,2013-02-17 21:40:00,
2013-02-17 13:45:00,53.1,18.1,29.83,West,270,12.0,15.0,25,0.00,,,0.00,meteohub,2013-02-17 21:45:00,
2013-02-17 13:50:00,52.7,17.8,29.83,West,270,15.0,17.0,25,0.00,,,0.00,meteohub,2013-02-17 21:50:00,
2013-02-17 13:55:00,52.7,18.7,29.83,West,270,17.0,17.0,26,0.00,,,0.00,meteohub,2013-02-17 21:55:00,
2013-02-17 14:00:00,52.7,18.7,29.82,West,270,13.0,17.0,26,0.00,,,0.00,meteohub,2013-02-17 22:00:00,
2013-02-17 14:05:00,53.1,19.0,29.82,NW,315,13.0,17.0,26,0.00,,,0.00,meteohub,2013-02-17 22:05:00,
2013-02-17 14:10:00,53.1,18.1,29.82,West,270,15.0,17.0,25,0.00,,,0.00,meteohub,2013-02-17 22:10:00,
2013-02-17 14:15:00,52.7,17.8,29.82,NW,315,17.0,17.0,25,0.00,,,0.00,meteohub,2013-02-17 22:15:00,
2013-02-17 14:21:00,52.9,18.0,29.82,NW,315,14.0,17.0,25,0.00,,,0.00,meteohub,2013-02-17 22:21:00,
2013-02-17 14:26:00,53.1,18.1,29.81,West,270,11.0,17.0,25,0.00,,,0.00,meteohub,2013-02-17 22:26:00,
2013-02-17 14:31:00,53.4,18.5,29.82,West,270,15.0,17.0,25,0.00,,,0.00,meteohub,2013-02-17 22:31:00,
2013-02-17 14:36:00,53.4,18.5,29.81,West,270,15.0,15.0,25,0.00,,,0.00,meteohub,2013-02-17 22:36:00,
2013-02-17 14:41:00,53.4,18.5,29.81,West,270,11.0,15.0,25,0.00,,,0.00,meteohub,2013-02-17 22:41:00,
2013-02-17 14:46:00,53.2,18.3,29.81,West,270,14.0,16.0,25,0.00,,,0.00,meteohub,2013-02-17 22:46:00,
2013-02-17 14:51:00,53.2,18.3,29.82,West,270,10.0,16.0,25,0.00,,,0.00,meteohub,2013-02-17 22:51:00,
2013-02-17 14:56:00,53.1,18.1,29.82,West,270,9.0,16.0,25,0.00,,,0.00,meteohub,2013-02-17 22:56:00,
2013-02-17 15:01:00,53.1,18.1,29.82,West,270,10.0,15.0,25,0.00,,,0.00,meteohub,2013-02-17 23:01:00,
2013-02-17 15:07:00,53.6,17.6,29.81,West,270,11.0,15.0,24,0.00,,,0.00,meteohub,2013-02-17 23:07:00,
2013-02-17 15:12:00,53.8,17.8,29.81,West,270,8.0,14.0,24,0.00,,,0.00,meteohub,2013-02-17 23:12:00,
2013-02-17 15:17:00,53.8,17.8,29.81,North,0,12.0,13.0,24,0.00,,,0.00,meteohub,2013-02-17 23:17:00,
2013-02-17 15:22:00,53.6,17.6,29.81,West,270,10.0,13.0,24,0.00,,,0.00,meteohub,2013-02-17 23:22:00,
2013-02-17 15:27:00,53.8,17.8,29.81,West,270,11.0,13.0,24,0.00,,,0.00,meteohub,2013-02-17 23:27:00,
2013-02-17 15:32:00,53.6,17.6,29.81,West,270,9.0,13.0,24,0.00,,,0.00,meteohub,2013-02-17 23:32:00,
2013-02-17 15:37:00,53.4,18.5,29.81,West,270,11.0,15.0,25,0.00,,,0.00,meteohub,2013-02-17 23:37:00,
2013-02-17 15:42:00,53.4,18.5,29.81,West,270,13.0,15.0,25,0.00,,,0.00,meteohub,2013-02-17 23:42:00,
2013-02-17 15:47:00,53.1,18.1,29.81,West,270,12.0,15.0,25,0.00,,,0.00,meteohub,2013-02-17 23:47:00,
2013-02-17 15:52:00,53.2,18.3,29.81,West,270,9.0,15.0,25,0.00,,,0.00,meteohub,2013-02-17 23:52:00,
2013-02-17 15:57:00,53.2,18.3,29.81,NW,315,12.0,15.0,25,0.00,,,0.00,meteohub,2013-02-17 23:57:00,
2013-02-17 16:03:00,53.1,18.1,29.81,West,270,9.0,13.0,25,0.00,,,0.00,meteohub,2013-02-18 00:03:00,
2013-02-17 16:08:00,53.2,18.3,29.81,West,270,11.0,14.0,25,0.00,,,0.00,meteohub,2013-02-18 00:08:00,
2013-02-17 16:13:00,53.1,18.1,29.81,NW,315,12.0,14.0,25,0.00,,,0.00,meteohub,2013-02-18 00:13:00,
2013-02-17 16:18:00,53.1,19.0,29.81,NW,315,9.0,12.0,26,0.00,,,0.00,meteohub,2013-02-18 00:18:00,
2013-02-17 16:23:00,52.9,18.9,29.81,NW,315,11.0,12.0,26,0.00,,,0.00,meteohub,2013-02-18 00:23:00,
2013-02-17 16:28:00,52.7,19.6,29.81,NW,315,13.0,14.0,27,0.00,,,0.00,meteohub,2013-02-18 00:28:00,
2013-02-17 16:33:00,52.2,19.2,29.81,NW,315,13.0,14.0,27,0.00,,,0.00,meteohub,2013-02-18 00:33:00,
2013-02-17 16:38:00,52.0,19.0,29.81,West,270,8.0,15.0,27,0.00,,,0.00,meteohub,2013-02-18 00:38:00,
2013-02-17 16:43:00,51.8,19.8,29.81,West,270,8.0,15.0,28,0.00,,,0.00,meteohub,2013-02-18 00:43:00,
2013-02-17 16:48:00,51.8,19.8,29.81,West,270,8.0,15.0,28,0.00,,,0.00,meteohub,2013-02-18 00:48:00,
2013-02-17 16:53:00,51.8,19.8,29.81,West,270,11.0,15.0,28,0.00,,,0.00,meteohub,2013-02-18 00:53:00,
2013-02-17 16:58:00,51.6,20.3,29.81,West,270,11.0,12.0,29,0.00,,,0.00,meteohub,2013-02-18 00:58:00,
2013-02-17 17:03:00,51.4,20.3,29.82,NW,315,11.0,12.0,29,0.00,,,0.00,meteohub,2013-02-18 01:03:00,
2013-02-17 17:09:00,51.4,20.3,29.81,NW,315,11.0,11.0,29,0.00,,,0.00,meteohub,2013-02-18 01:09:00,
2013-02-17 17:14:00,51.6,20.3,29.81,West,270,6.0,11.0,29,0.00,,,0.00,meteohub,2013-02-18 01:14:00,
2013-02-17 17:19:00,51.4,21.0,29.81,West,270,4.0,11.0,30,0.00,,,0.00,meteohub,2013-02-18 01:19:00,
2013-02-17 17:24:00,51.4,21.0,29.81,NW,315,7.0,11.0,30,0.00,,,0.00,meteohub,2013-02-18 01:24:00,
2013-02-17 17:29:00,51.1,20.7,29.81,West,270,7.0,11.0,30,0.00,,,0.00,meteohub,2013-02-18 01:29:00,
2013-02-17 17:34:00,50.9,21.4,29.81,West,270,6.0,9.0,31,0.00,,,0.00,meteohub,2013-02-18 01:34:00,
2013-02-17 17:39:00,50.7,21.2,29.82,West,270,5.0,7.0,31,0.00,,,0.00,meteohub,2013-02-18 01:39:00,
2013-02-17 17:44:00,50.5,21.0,29.81,West,270,6.0,7.0,31,0.00,,,0.00,meteohub,2013-02-18 01:44:00,
2013-02-17 17:49:00,50.4,21.6,29.81,WSW,248,4.0,8.0,32,0.00,,,0.00,meteohub,2013-02-18 01:49:00,
2013-02-17 17:54:00,50.0,22.1,29.81,SW,225,4.0,8.0,33,0.00,,,0.00,meteohub,2013-02-18 01:54:00,
2013-02-17 18:00:00,49.8,22.6,29.81,West,270,4.0,7.0,34,0.00,,,0.00,meteohub,2013-02-18 02:00:00,
2013-02-17 18:05:00,49.8,22.6,29.81,West,270,4.0,6.0,34,0.00,,,0.00,meteohub,2013-02-18 02:05:00,
2013-02-17 18:10:00,49.1,21.9,29.81,West,270,4.0,5.0,34,0.00,,,0.00,meteohub,2013-02-18 02:10:00,
2013-02-17 18:15:00,48.9,21.7,29.81,West,270,6.0,6.0,34,0.00,,,0.00,meteohub,2013-02-18 02:15:00,
2013-02-17 18:20:00,48.6,22.1,29.82,West,270,4.0,6.0,35,0.00,,,0.00,meteohub,2013-02-18 02:20:00,
2013-02-17 18:25:00,48.4,21.9,29.81,West,270,4.0,6.0,35,0.00,,,0.00,meteohub,2013-02-18 02:25:00,
2013-02-17 18:30:00,48.2,22.5,29.81,West,270,4.0,6.0,36,0.00,,,0.00,meteohub,2013-02-18 02:30:00,
2013-02-17 18:35:00,48.0,23.0,29.82,West,270,4.0,5.0,37,0.00,,,0.00,meteohub,2013-02-18 02:35:00,
2013-02-17 18:40:00,47.8,22.8,29.82,West,270,5.0,6.0,37,0.00,,,0.00,meteohub,2013-02-18 02:40:00,
2013-02-17 18:45:00,47.5,23.2,29.82,NW,315,4.0,6.0,38,0.00,,,0.00,meteohub,2013-02-18 02:45:00,
2013-02-17 18:50:00,47.3,23.0,29.82,West,270,5.0,6.0,38,0.00,,,0.00,meteohub,2013-02-18 02:50:00,
2013-02-17 18:55:00,47.3,23.5,29.82,NW,315,4.0,5.0,39,0.00,,,0.00,meteohub,2013-02-18 02:55:00,
2013-02-17 19:01:00,47.1,23.4,29.82,West,270,4.0,5.0,39,0.00,,,0.00,meteohub,2013-02-18 03:01:00,
2013-02-17 19:06:00,46.9,23.9,29.82,West,270,3.0,6.0,40,0.00,,,0.00,meteohub,2013-02-18 03:06:00,
2013-02-17 19:11:00,46.8,23.7,29.82,West,270,4.0,6.0,40,0.00,,,0.00,meteohub,2013-02-18 03:11:00,
2013-02-17 19:16:00,46.4,23.9,29.82,SW,225,6.0,6.0,41,0.00,,,0.00,meteohub,2013-02-18 03:16:00,
2013-02-17 19:21:00,46.2,23.9,29.82,West,270,4.0,6.0,41,0.00,,,0.00,meteohub,2013-02-18 03:21:00,
2013-02-17 19:26:00,46.0,24.3,29.82,West,270,4.0,6.0,42,0.00,,,0.00,meteohub,2013-02-18 03:26:00,
2013-02-17 19:31:00,46.0,24.3,29.82,SW,225,3.0,6.0,42,0.00,,,0.00,meteohub,2013-02-18 03:31:00,
2013-02-17 19:36:00,45.9,24.1,29.82,West,270,6.0,6.0,42,0.00,,,0.00,meteohub,2013-02-18 03:36:00,
2013-02-17 19:41:00,45.9,24.1,29.82,SW,225,4.0,6.0,42,0.00,,,0.00,meteohub,2013-02-18 03:41:00,
2013-02-17 19:46:00,45.9,24.6,29.82,West,270,4.0,7.0,43,0.00,,,0.00,meteohub,2013-02-18 03:46:00,
2013-02-17 19:51:00,45.9,24.6,29.82,NW,315,4.0,7.0,43,0.00,,,0.00,meteohub,2013-02-18 03:51:00,
2013-02-17 19:57:00,45.9,25.2,29.82,SW,225,5.0,7.0,44,0.00,,,0.00,meteohub,2013-02-18 03:57:00,
2013-02-17 20:02:00,45.9,25.2,29.82,NW,315,4.0,7.0,44,0.00,,,0.00,meteohub,2013-02-18 04:02:00,
2013-02-17 20:07:00,45.9,25.2,29.81,NW,315,4.0,7.0,44,0.00,,,0.00,meteohub,2013-02-18 04:07:00,
2013-02-17 20:12:00,45.9,25.7,29.81,West,270,7.0,7.0,45,0.00,,,0.00,meteohub,2013-02-18 04:12:00,
2013-02-17 20:17:00,45.9,25.7,29.82,SW,225,6.0,7.0,45,0.00,,,0.00,meteohub,2013-02-18 04:17:00,
2013-02-17 20:22:00,45.9,25.7,29.82,West,270,7.0,7.0,45,0.00,,,0.00,meteohub,2013-02-18 04:22:00,
2013-02-17 20:27:00,45.9,26.2,29.81,SW,225,5.0,7.0,46,0.00,,,0.00,meteohub,2013-02-18 04:27:00,
2013-02-17 20:32:00,45.9,26.2,29.81,West,270,4.0,7.0,46,0.00,,,0.00,meteohub,2013-02-18 04:32:00,
2013-02-17 20:37:00,45.9,26.2,29.81,SW,225,7.0,7.0,46,0.00,,,0.00,meteohub,2013-02-18 04:37:00,
2013-02-17 20:42:00,45.9,25.7,29.82,West,270,7.0,8.0,45,0.00,,,0.00,meteohub,2013-02-18 04:42:00,
2013-02-17 20:47:00,46.0,25.9,29.82,West,270,4.0,8.0,45,0.00,,,0.00,meteohub,2013-02-18 04:47:00,
2013-02-17 20:52:00,46.0,25.9,29.81,West,270,4.0,7.0,45,0.00,,,0.00,meteohub,2013-02-18 04:52:00,
2013-02-17 20:58:00,45.9,25.7,29.81,South,180,2.0,7.0,45,0.00,,,0.00,meteohub,2013-02-18 04:58:00,
2013-02-17 21:00:00,45.9,25.7,29.81,SW,225,4.0,7.0,45,0.00,,,0.00,meteohub,2013-02-18 05:00:00,
2013-02-17 21:01:00,45.9,25.7,29.82,NW,315,5.0,6.0,45,0.00,,,0.00,meteohub,2013-02-18 05:01:00,
2013-02-17 21:06:00,45.9,25.7,29.82,SW,225,4.0,6.0,45,0.00,,,0.00,meteohub,2013-02-18 05:06:00,
2013-02-17 21:11:00,45.9,25.7,29.82,West,270,6.0,7.0,45,0.00,,,0.00,meteohub,2013-02-18 05:11:00,
2013-02-17 21:16:00,45.9,25.7,29.82,SW,225,5.0,7.0,45,0.00,,,0.00,meteohub,2013-02-18 05:16:00,
2013-02-17 21:21:00,45.9,25.7,29.82,NW,315,5.0,7.0,45,0.00,,,0.00,meteohub,2013-02-18 05:21:00,
2013-02-17 21:26:00,45.9,25.7,29.82,SW,225,4.0,7.0,45,0.00,,,0.00,meteohub,2013-02-18 05:26:00,
2013-02-17 21:32:00,45.9,25.7,29.82,SW,225,4.0,7.0,45,0.00,,,0.00,meteohub,2013-02-18 05:32:00,
2013-02-17 21:37:00,45.9,25.7,29.82,SW,225,4.0,8.0,45,0.00,,,0.00,meteohub,2013-02-18 05:37:00,
2013-02-17 21:42:00,45.7,25.0,29.82,NNE,23,5.0,8.0,44,0.00,,,0.00,meteohub,2013-02-18 05:42:00,
2013-02-17 21:47:00,45.7,25.0,29.82,WSW,248,6.0,8.0,44,0.00,,,0.00,meteohub,2013-02-18 05:47:00,
2013-02-17 21:52:00,45.7,25.0,29.82,SE,135,6.0,8.0,44,0.00,,,0.00,meteohub,2013-02-18 05:52:00,
2013-02-17 21:57:00,45.7,25.5,29.82,West,270,9.0,9.0,45,0.00,,,0.00,meteohub,2013-02-18 05:57:00,
2013-02-17 22:02:00,45.7,25.5,29.82,West,270,6.0,9.0,45,0.00,,,0.00,meteohub,2013-02-18 06:02:00,
2013-02-17 22:07:00,45.7,25.5,29.82,West,270,6.0,9.0,45,0.00,,,0.00,meteohub,2013-02-18 06:07:00,
2013-02-17 22:12:00,45.9,26.2,29.82,NW,315,4.0,9.0,46,0.00,,,0.00,meteohub,2013-02-18 06:12:00,
2013-02-17 22:17:00,45.7,26.6,29.83,NW,315,4.0,6.0,47,0.00,,,0.00,meteohub,2013-02-18 06:17:00,
2013-02-17 22:22:00,45.7,26.6,29.83,WNW,293,3.0,6.0,47,0.00,,,0.00,meteohub,2013-02-18 06:22:00,
2013-02-17 22:27:00,45.5,26.4,29.83,South,180,4.0,6.0,47,0.00,,,0.00,meteohub,2013-02-18 06:27:00,
2013-02-17 22:32:00,45.5,27.0,29.83,SW,225,4.0,5.0,48,0.00,,,0.00,meteohub,2013-02-18 06:32:00,
2013-02-17 22:37:00,45.5,27.0,29.83,West,270,4.0,5.0,48,0.00,,,0.00,meteohub,2013-02-18 06:37:00,
2013-02-17 22:42:00,45.3,26.8,29.83,West,270,5.0,5.0,48,0.00,,,0.00,meteohub,2013-02-18 06:42:00,
2013-02-17 22:47:00,45.3,26.8,29.83,SW,225,4.0,6.0,48,0.00,,,0.00,meteohub,2013-02-18 06:47:00,
2013-02-17 22:52:00,45.1,26.6,29.83,South,180,4.0,6.0,48,0.00,,,0.00,meteohub,2013-02-18 06:52:00,
2013-02-17 22:57:00,45.1,26.6,29.83,SW,225,3.0,6.0,48,0.00,,,0.00,meteohub,2013-02-18 06:57:00,
2013-02-17 23:02:00,45.1,26.6,29.83,NW,315,6.0,6.0,48,0.00,,,0.00,meteohub,2013-02-18 07:02:00,
2013-02-17 23:07:00,45.0,26.4,29.83,SW,225,4.0,6.0,48,0.00,,,0.00,meteohub,2013-02-18 07:07:00,
2013-02-17 23:12:00,45.0,27.0,29.83,West,270,4.0,6.0,49,0.00,,,0.00,meteohub,2013-02-18 07:12:00,
2013-02-17 23:17:00,45.0,27.0,29.83,SW,225,5.0,6.0,49,0.00,,,0.00,meteohub,2013-02-18 07:17:00,
2013-02-17 23:22:00,44.8,27.3,29.83,West,270,5.0,5.0,50,0.00,,,0.00,meteohub,2013-02-18 07:22:00,
2013-02-17 23:27:00,44.8,27.3,29.83,SW,225,5.0,5.0,50,0.00,,,0.00,meteohub,2013-02-18 07:27:00,
2013-02-17 23:32:00,44.8,27.7,29.84,West,270,7.0,7.0,51,0.00,,,0.00,meteohub,2013-02-18 07:32:00,
2013-02-17 23:37:00,45.0,27.9,29.83,West,270,5.0,7.0,51,0.00,,,0.00,meteohub,2013-02-18 07:37:00,
2013-02-17 23:42:00,45.0,28.4,29.83,WSW,248,6.0,7.0,52,0.00,,,0.00,meteohub,2013-02-18 07:42:00,
2013-02-17 23:47:00,45.1,28.6,29.84,West,270,5.0,7.0,52,0.00,,,0.00,meteohub,2013-02-18 07:47:00,
2013-02-17 23:52:00,45.3,29.1,29.84,West,270,5.0,7.0,53,0.00,,,0.00,meteohub,2013-02-18 07:52:00,
2013-02-17 23:57:00,45.5,29.3,29.84,NW,315,7.0,7.0,53,0.00,,,0.00,meteohub,2013-02-18 07:57:00,